Craig, CO

2:19 PM MDT on July 27, 2017 (GMT -0600)
Craig-Moffat

Weather History for KCAG - August, 2014

Change the Weather History Date:

Tuesday, August 19, 2014

  Actual Average Record
Temperature  
Mean Temperature 64 °F 64 °F  
Max Temperature 76 °F 84 °F 93 °F (2013)
Min Temperature 51 °F 46 °F 36 °F (2002)
Degree Days  
Heating Degree Days 1 2  
Month to date heating degree days 16 19  
Since 1 June heating degree days 246 219  
Since 1 July heating degree days 60 44  
Cooling Degree Days 0 1  
Month to date cooling degree days 28 45  
Year to date cooling degree days 69 134  
Since 1 June cooling degree days 69 134  
Growing Degree Days 13 (Base 50)    
Moisture  
Dew Point 48 °F    
Average Humidity 61    
Maximum Humidity 86    
Minimum Humidity 35    
Precipitation  
Precipitation 0.19 in 0.04 in 0.33 in (2010)
Month to date precipitation 1.02 0.79  
Year to date precipitation 7.21 9.46  
Sea Level Pressure  
Sea Level Pressure 29.88 in    
Wind  
Wind Speed 5 mph (ENE)    
Max Wind Speed 22 mph    
Max Gust Speed 30 mph    
Visibility 10 miles    
Events Rain    
T = Trace of Precipitation, MM = Missing Value Source: NWS Daily Summary

Daily Weather History Graph

Daily Weather History Graph

Search for Another Location

Airport or City:

Trip Planner

Search our weather history database for the weather conditions in past years. The results will help you decide how hot, cold, wet, or windy it might be!

Date:

Astronomy

Aug. 19, 2014 Rise Set
Actual Time 6:24 AM MDT 8:01 PM MDT
Civil Twilight 5:55 AM MDT 8:30 PM MDT
Nautical Twilight 5:20 AM MDT 9:05 PM MDT
Astronomical Twilight 4:43 AM MDT 9:42 PM MDT
Moon 1:18 AM MDT (8/19) 4:01 PM MDT (8/19)
Length of Visible Light 14h 34m
Length of Day
13h 37m
Waning Crescent, 28% of the Moon is Illuminated
Aug 19
Waning Crescent
Aug 25
New
Sep 2
First Quarter
Sep 8
Full
Sep 15
Last Quarter

Hourly Weather History & Observations

Time (MDT) Temp. Dew Point Humidity Pressure Visibility Wind Dir Wind Speed Gust Speed Precip Events Conditions
12:53 AM 63.0 °F 41.0 °F 45% 29.84 in 10.0 mi South 5.8 mph - N/A   Clear
1:53 AM 64.0 °F 41.0 °F 43% 29.78 in 10.0 mi NE 12.7 mph 20.7 mph N/A   Clear
2:53 AM 60.8 °F 41.0 °F 48% 30.05 in 10.0 mi ENE 10.4 mph - N/A   Clear
3:53 AM 62.1 °F 39.0 °F 43% 29.78 in 10.0 mi ESE 5.8 mph - N/A   Clear
4:53 AM 55.9 °F 42.1 °F 60% 29.83 in 10.0 mi Calm Calm - N/A   Partly Cloudy
5:53 AM 52.0 °F 43.0 °F 71% 29.88 in 10.0 mi Calm Calm - N/A   Clear
6:53 AM 53.1 °F 44.1 °F 71% 29.88 in 10.0 mi Calm Calm - N/A   Clear
7:53 AM 57.0 °F 42.1 °F 57% 29.91 in 10.0 mi ESE 3.5 mph - N/A   Clear
8:53 AM 59.0 °F 46.0 °F 62% 29.95 in 10.0 mi Calm Calm - N/A   Overcast
9:53 AM 64.0 °F 45.0 °F 50% 29.95 in 10.0 mi ENE 4.6 mph - N/A   Mostly Cloudy
10:53 AM 73.0 °F 45.0 °F 37% 29.93 in 10.0 mi NNE 5.8 mph - N/A   Scattered Clouds
11:53 AM 70.0 °F 45.0 °F 41% 29.93 in 10.0 mi West 6.9 mph - N/A   Overcast
12:53 PM 57.9 °F 53.1 °F 84% 30.01 in 3.0 mi West 13.8 mph 24.2 mph 0.05 in Rain Heavy Rain
1:53 PM 62.1 °F 54.0 °F 75% 29.96 in 10.0 mi NNW 3.5 mph - 0.03 in   Overcast
2:53 PM 64.0 °F 55.0 °F 73% 29.93 in 10.0 mi North 3.5 mph - 0.01 in Rain Light Rain
3:53 PM 68.0 °F 54.0 °F 61% 29.86 in 10.0 mi Calm Calm - 0.00 in   Unknown
6:53 PM 72.0 °F 48.9 °F 44% 29.81 in 10.0 mi Calm Calm - N/A   Clear
7:53 PM 66.9 °F 54.0 °F 63% 29.82 in 10.0 mi NNE 3.5 mph - N/A   Mostly Cloudy
8:53 PM 64.0 °F 53.1 °F 67% 29.82 in 10.0 mi East 4.6 mph - 0.00 in   Mostly Cloudy
9:53 PM 64.0 °F 51.1 °F 63% 29.84 in 10.0 mi South 13.8 mph - 0.00 in Rain Light Rain
10:53 PM 57.0 °F 53.1 °F 87% 29.84 in 8.0 mi SSE 8.1 mph - 0.03 in Rain Light Rain
11:53 PM 57.9 °F 53.1 °F 84% 29.85 in 8.0 mi East 6.9 mph - 0.05 in Rain Rain